Stations météo

Publicité
Kinlochewe, Grande-Bretagne (99092): Température de l'air & dewpoint: 16.08.2018 00:00:00 - 22.08.2018 00:00:00 (BST)Kinlochewe, Grande-Bretagne (99092): Température de l'air -20cm: 16.08.2018 00:00:00 - 22.08.2018 00:00:00 (BST)Kinlochewe, Grande-Bretagne (99092): Quantités de précipitations: 16.08.2018 00:00:00 - 22.08.2018 00:00:00 (BST)
Date & Time tt [°C] td [°C] tt -20cm [°C] rr [mm]
22.08.2018 00:00:00 15,6 14,7 - 1,8
21.08.2018 23:00:00 16,2 14,7 - 2,0
21.08.2018 22:00:00 16,7 15,1 - 3,6
21.08.2018 21:00:00 17,3 15,1 - 1,4
21.08.2018 20:00:00 16,2 14,7 - 0,4
21.08.2018 19:00:00 17,5 13,8 - 0,0
21.08.2018 18:00:00 18,7 13,3 - 0,0
21.08.2018 17:00:00 19,1 13,6 - 0,0
21.08.2018 16:00:00 18,8 13,9 - 0,0
21.08.2018 15:00:00 19,5 13,9 - 0,0
21.08.2018 14:00:00 17,3 13,4 - 0,0
21.08.2018 13:00:00 16,5 12,8 - 0,0
21.08.2018 12:00:00 15,6 12,2 - 0,0
21.08.2018 11:00:00 15,1 11,8 - 0,0
21.08.2018 10:00:00 13,6 10,9 13,9 0,0
21.08.2018 09:00:00 12,9 10,6 - 0,0
21.08.2018 08:00:00 11,4 10,5 - 0,0
21.08.2018 07:00:00 9,5 9,1 - 0,0
21.08.2018 06:00:00 8,8 8,5 - 0,0
21.08.2018 05:00:00 8,3 8,1 - 0,0
21.08.2018 04:00:00 7,6 7,5 - 0,0
21.08.2018 03:00:00 7,6 7,3 - 0,0
21.08.2018 02:00:00 7,3 6,8 - 0,0
21.08.2018 01:00:00 8,4 7,7 - 0,0
21.08.2018 00:00:00 10,2 9,4 - 0,0
20.08.2018 23:00:00 10,8 9,6 - 0,0
20.08.2018 22:00:00 10,7 9,4 - 0,0
20.08.2018 21:00:00 12,6 9,1 - 0,0
20.08.2018 20:00:00 13,7 9,5 - 0,0
20.08.2018 19:00:00 14,1 9,2 - 0,0
20.08.2018 18:00:00 15,2 9,5 - 0,0
20.08.2018 17:00:00 16,2 9,6 - 0,0
20.08.2018 16:00:00 15,6 9,4 - 0,0
20.08.2018 15:00:00 15,1 8,7 - 0,0
20.08.2018 14:00:00 15,2 9,6 - 0,0
20.08.2018 13:00:00 15,7 10,3 - 0,0
20.08.2018 12:00:00 15,5 9,8 - 0,0
20.08.2018 11:00:00 14,4 10,0 - 0,0
20.08.2018 10:00:00 13,7 10,8 14,0 0,0
20.08.2018 09:00:00 11,8 10,9 - 0,0
20.08.2018 08:00:00 11,0 10,6 - 0,0
20.08.2018 07:00:00 10,3 9,9 - 0,0
20.08.2018 06:00:00 10,1 9,6 - 0,0
20.08.2018 05:00:00 10,3 9,6 - 0,0
20.08.2018 04:00:00 10,2 9,5 - 0,0
20.08.2018 03:00:00 10,1 9,4 - 0,0
20.08.2018 02:00:00 9,9 9,0 - 0,0
20.08.2018 01:00:00 10,5 8,9 - 0,0
20.08.2018 00:00:00 12,2 9,1 - 0,0
19.08.2018 23:00:00 12,9 8,7 - 0,0
19.08.2018 22:00:00 13,5 8,0 - 0,0
19.08.2018 21:00:00 13,9 8,4 - 0,0
19.08.2018 20:00:00 14,3 9,1 - 0,0
19.08.2018 19:00:00 15,0 9,6 - 0,0
19.08.2018 18:00:00 16,3 10,1 - 0,0
19.08.2018 17:00:00 16,8 10,4 - 0,0
19.08.2018 16:00:00 16,5 10,7 - 0,0
19.08.2018 15:00:00 18,2 11,0 - 0,0
19.08.2018 14:00:00 18,3 11,2 - 0,0
19.08.2018 13:00:00 16,6 10,4 - 0,0
19.08.2018 12:00:00 17,2 9,8 - 0,0
19.08.2018 11:00:00 16,0 10,5 - 0,0
19.08.2018 10:00:00 13,2 9,7 14,0 0,0
19.08.2018 09:00:00 12,1 9,6 - 0,0
19.08.2018 08:00:00 9,9 8,7 - 0,0
19.08.2018 07:00:00 9,1 7,9 - 0,0
19.08.2018 06:00:00 9,2 7,7 - 0,0
19.08.2018 05:00:00 9,4 7,8 - 0,0
19.08.2018 04:00:00 9,0 7,8 - 0,0
19.08.2018 03:00:00 9,5 8,1 - 0,0
19.08.2018 02:00:00 10,3 8,3 - 0,0
19.08.2018 01:00:00 10,7 8,3 - 0,0
19.08.2018 00:00:00 11,6 8,2 - 0,0
18.08.2018 23:00:00 12,3 8,3 - 0,0
18.08.2018 22:00:00 12,6 8,0 - 0,0
18.08.2018 21:00:00 13,3 8,1 - 0,0
18.08.2018 20:00:00 14,0 7,3 - 0,0
18.08.2018 19:00:00 14,3 8,2 - 0,0
18.08.2018 18:00:00 15,0 7,6 - 0,0
18.08.2018 17:00:00 15,6 8,3 - 0,0
18.08.2018 16:00:00 15,0 7,9 - 0,0
18.08.2018 15:00:00 16,1 9,3 - 0,0
18.08.2018 14:00:00 14,9 8,8 - 0,0
18.08.2018 13:00:00 15,0 8,6 - 0,0
18.08.2018 12:00:00 15,9 8,8 - 0,0
18.08.2018 11:00:00 15,1 9,1 - 0,2
18.08.2018 10:00:00 13,5 9,5 14,0 0,0
18.08.2018 09:00:00 14,0 8,8 - 0,0
18.08.2018 08:00:00 14,7 8,0 - 0,0
18.08.2018 07:00:00 14,8 7,8 - 0,0
18.08.2018 06:00:00 14,8 8,8 - 0,0
18.08.2018 05:00:00 14,0 9,9 - 0,0
18.08.2018 04:00:00 13,8 9,6 - 0,2
18.08.2018 03:00:00 13,6 9,1 - 0,0
18.08.2018 02:00:00 13,8 9,2 - 0,0
18.08.2018 01:00:00 13,9 9,2 - 0,0
18.08.2018 00:00:00 14,1 9,0 - 0,0
17.08.2018 23:00:00 14,3 8,7 - 0,0
17.08.2018 22:00:00 14,8 8,8 - 0,0
17.08.2018 21:00:00 14,7 8,6 - 0,0
17.08.2018 20:00:00 14,9 10,4 - 0,0
17.08.2018 19:00:00 15,0 12,7 - 0,0
17.08.2018 18:00:00 14,9 13,3 - 0,8
17.08.2018 17:00:00 14,9 13,3 - 0,2
17.08.2018 16:00:00 16,4 13,1 - 0,0
17.08.2018 15:00:00 16,8 12,7 - 0,0
17.08.2018 14:00:00 15,5 12,5 - 0,0
17.08.2018 13:00:00 14,1 11,5 - 0,2
17.08.2018 12:00:00 14,0 11,4 - 0,0
17.08.2018 11:00:00 13,5 11,0 - 0,0
17.08.2018 10:00:00 13,2 10,5 14,0 0,0
17.08.2018 09:00:00 12,0 10,7 - 0,2
17.08.2018 08:00:00 11,1 10,5 - 0,2
17.08.2018 07:00:00 10,7 9,6 - 0,2
17.08.2018 06:00:00 10,6 9,5 - 0,0
17.08.2018 05:00:00 11,1 8,9 - 0,2
17.08.2018 04:00:00 11,4 9,9 - 0,8
17.08.2018 03:00:00 11,2 9,6 - 1,2
17.08.2018 02:00:00 11,5 9,4 - 0,2
17.08.2018 01:00:00 11,6 9,9 - 0,2
17.08.2018 00:00:00 12,5 9,0 - 0,0
16.08.2018 23:00:00 12,6 9,0 - 0,0
16.08.2018 22:00:00 12,6 9,2 - 0,0
16.08.2018 21:00:00 11,9 10,3 - 0,2
16.08.2018 20:00:00 12,1 11,1 - 0,8
16.08.2018 19:00:00 12,6 10,9 - 1,0
16.08.2018 18:00:00 14,4 11,0 - 0,2
16.08.2018 17:00:00 15,9 12,1 - 0,6
16.08.2018 16:00:00 13,7 11,0 - 2,6
16.08.2018 15:00:00 13,7 10,6 - 0,4
16.08.2018 14:00:00 13,1 10,6 - 0,4
16.08.2018 13:00:00 14,2 12,7 - 0,8
16.08.2018 12:00:00 13,0 10,6 - 0,6
16.08.2018 11:00:00 13,2 11,0 - 0,4
16.08.2018 10:00:00 13,0 9,9 14,0 0,0
16.08.2018 09:00:00 12,5 9,8 - 0,4
16.08.2018 08:00:00 12,2 9,5 - 0,0
16.08.2018 07:00:00 11,9 10,0 - 0,6
16.08.2018 06:00:00 12,1 9,6 - 0,4
16.08.2018 05:00:00 12,2 9,6 - 0,2
16.08.2018 04:00:00 11,9 9,8 - 0,8
16.08.2018 03:00:00 12,9 9,4 - 0,0
16.08.2018 02:00:00 13,2 8,7 - 0,0
16.08.2018 01:00:00 13,1 8,9 - 0,0
16.08.2018 00:00:00 12,8 8,4 - 0,0

tt = Température de l'air
td = dewpoint
tt -20cm = Température de l'air -20cm
rr = Quantités de précipitations

stations d'obs. à proximité